CZ-2C R/B

Satellite information

Favourite Embed

Satellite Type and Status

ROCKET BODYIN ORBIT

Key statistics

Satellite CZ-2C R/B at a glance.

Uptime

4179

Days in orbit

Revolutions

≈ 15.3

Per day

Orbit

SSO

Sun Synchronous Orbit

Inclination

98.3

Latest

Satellite identification and parameters

Extended collection of information and parameters for CZ-2C R/B.

Object identification

Identified? True

Debris? False

Object name: CZ-2C R/B

International designator: 2014-014B

Object number (NORAD): 39625

Object ID (CCSDS): 39625

Country: PEOPLES REPUBLIC OF CHINA (PRC)

Current information (Y/N): Y

RCS size: LARGE

Orbital parameters

Period: 94.236 minutes

Inclination: 98.3483 deg

SMA: 6859.673 km

Apoapsis: 537.538 km

Periapsis: 425.537 km

RAAN: 326.2061 deg

Eccentricy: 0.00816379

Argument of periapsis: 191.8258 deg

Mean anomaly: 168.1064 deg

Mean motion: 15.28085614 rev/day

Mean motion (dot): 0.00014888 rev/day2

B* drag term: 0.00049485008 1/REarth

Two-line elements (TLE)

Creation date: Sept. 8, 2025, 3:16 a.m.

Reference frame: TEME

Reference center: EARTH

Epoch: Sept. 7, 2025, 7:49 p.m. UTC

TLE line 0: 0 CZ-2C R/B

TLE line 1: 1 39625U 14014B 25250.82631015 .00014888 00000-0 49485-3 0 9997

TLE line 2: 2 39625 98.3483 326.2061 0081638 191.8258 168.1064 15.28085614627610

Live tracking on map

Real-time ground track for satellite CZ-2C R/B.

In-orbit conjunctions

A list of the most updated potential collisions computed for object CZ-2C R/B.

Target Orbit TCA Probability of collision Miss distance Type
COSMOS 374 DEB LEO 2025-04-20 02:31:18 0.0001738365 396.0 (m) DEBRIS
FENGYUN 1C DEB SSO 2024-08-07 07:40:15 0.0006794535 98.0 (m) DEBRIS
COSMOS 2251 DEB LEO 2024-06-19 09:00:13 0.0002611137 458.0 (m) DEBRIS

Associated space launch

CZ-2C R/B was lifted into orbit during the mission ‘Long March 2C | Shijian 11-06’, on board a Long March 2 space rocket.

The launch took place on March 31, 2014, 2:46 a.m. from Launch Area 4 (SLS-2 / 603).

For more information about the launch, click the button.

Launch to space Long March 2C | Shijian 11-06
Long March 2C | Shijian 11-06

Agency: N/A

Status: Launch Successful

Launch date: March 31, 2014, 2:46 a.m. UTC

Rocket: Long March 2

Launch pad: Launch Area 4 (SLS-2 / 603)

Location: Jiuquan Satellite Launch Center, People's Republic of China

...

Latest news about this satellite

There are no fresh news available about this satellite. Check back as we update our databases every day.


Newsletter sign-up

Weekly statistics, charts and insights to help you stay on top of the space industry.